This is the latest recevied weather packets stored in our database for station/object DO1BDB-12. If no packets are shown the sender has not sent any weather packets the latest 10 day(s).
| Time | Temp. | Humidity | Pressure | Rain* | Wind** | Luminosity | Snow |
|---|---|---|---|---|---|---|---|
| 1787935878 | 21.67° C | 84% | 100.6 hPa | - | - | - | - |
| 1787935813 | 21.67° C | 84% | 100.6 hPa | - | - | - | - |
| 1787935747 | 21.67° C | 84% | 100.6 hPa | - | - | - | - |
| 1787935681 | 21.67° C | 84% | 100.6 hPa | - | - | - | - |
| 1787935615 | 21.67° C | 84% | 100.6 hPa | - | - | - | - |
| 1787935549 | 21.11° C | 84% | 100.6 hPa | - | - | - | - |
| 1787935483 | 21.11° C | 85% | 100.6 hPa | - | - | - | - |
| 1787935418 | 21.11° C | 85% | 100.6 hPa | - | - | - | - |
| 1787935352 | 21.11° C | 86% | 100.6 hPa | - | - | - | - |
| 1787935286 | 21.67° C | 86% | 100.6 hPa | - | - | - | - |
| 1787935220 | 21.67° C | 86% | 100.6 hPa | - | - | - | - |
| 1787935154 | 21.67° C | 84% | 100.6 hPa | - | - | - | - |
| 1787935088 | 21.67° C | 83% | 100.6 hPa | - | - | - | - |
| 1787935023 | 22.22° C | 80% | 100.6 hPa | - | - | - | - |
| 1787934957 | 22.22° C | 78% | 100.6 hPa | - | - | - | - |
| 1787934891 | 22.22° C | 75% | 100.6 hPa | - | - | - | - |
| 1787934825 | 23.33° C | 71% | 100.6 hPa | - | - | - | - |
| 1787934759 | 23.89° C | 67% | 100.6 hPa | - | - | - | - |
| 1787934693 | 24.44° C | 62% | 100.6 hPa | - | - | - | - |
| 1787934627 | 25.56° C | 55% | 100.6 hPa | - | - | - | - |
| 1787934562 | 25.56° C | 55% | 100.6 hPa | - | - | - | - |
| 1787934496 | 25.56° C | 55% | 100.5 hPa | - | - | - | - |
| 1787934430 | 25.56° C | 55% | 100.5 hPa | - | - | - | - |
| 1787934364 | 25.56° C | 54% | 100.5 hPa | - | - | - | - |
| 1787934298 | 25.56° C | 54% | 100.5 hPa | - | - | - | - |
* Rain since midnight (hover to see other rain measurements)
** Current wind speed in m/s (hover to see current wind gust speed)